[[{"header":{"parameterUnit":"m.s-1","parameterCategory":1,"la1":30.2991,"la2":30.254,"lo1":-89.0895,"lo2":-89.0444,"dy":0.0017,"dx":0.0017,"nx":28,"ny":28,"refTime":"2024-04-09T21:00:00:Z","depth":0,"parameterNumber":2,"parameterNumberName":"U-component_of_WINDS"},"data":[0,0,0,0,0,0,0,0,0,0,0,0,0,0,0,0,0,0,0,0,0,0,0,0,0,0,0,0,0,0,0,0,0,0,0,0,0,0,0,0,0,0,0,0,0,0,0,0,0,0,0,0,0,0,0,0,0,0,4.7512,4.7513,0,4.7601,4.7602,4.7603,4.7579,4.7577,4.7575,4.7574,4.7667,4.7671,4.7675,0,0,0,0,0,0,0,0,0,0,0,0,0,4.7326,4.7329,4.7512,4.7513,4.7515,4.7601,4.7602,4.7604,4.7579,4.7577,4.7575,4.7573,4.7665,4.767,4.7675,0,0,0,0,0,0,0,0,0,0,0,0,0,4.741,4.7331,4.7512,4.7513,4.7514,4.7601,4.7602,4.7604,4.758,4.7577,4.7574,4.7572,4.7664,4.767,4.7676,4.7768,0,0,4.7695,4.7697,0,0,0,0,0,0,0,0,4.7405,4.7417,4.7512,4.7513,4.7514,4.7576,4.7571,4.7659,4.758,4.7555,4.7573,4.757,4.7639,4.7647,4.767,4.7773,4.7777,4.7695,4.7699,4.7702,4.7704,0,0,0,0,0,0,0,4.7399,4.7413,4.7547,4.7513,4.7515,4.751,4.7519,4.7587,4.7611,4.7557,4.7555,4.7566,4.7639,4.7664,4.7672,4.7778,4.7695,4.7701,4.7705,4.7707,4.7966,4.7969,0,0,0,0,0,0,4.7392,4.7408,4.7545,4.755,4.7452,4.7516,4.7526,4.7559,4.761,4.7615,4.7568,4.7564,4.7654,4.7664,4.7675,4.7789,4.7702,4.7708,4.7711,4.7963,4.7967,4.797,0,0,0,0,0,0,4.7388,4.7405,4.7541,4.7479,4.7496,4.7522,4.7559,4.7562,4.7587,4.7619,4.7623,4.7589,4.7653,4.7666,4.7746,4.7792,4.771,4.7716,4.7959,4.7964,4.7968,4.8017,0,0,0,0,0,0,4.7383,4.7403,4.7437,4.748,4.7499,4.761,4.7562,4.7566,4.7597,4.7593,4.7639,4.7644,4.7651,4.7737,4.7752,4.7799,4.7721,4.7955,4.7961,4.7967,4.8011,4.8023,4.8033,0,0,0,0,0,4.7376,4.7447,4.7439,4.7456,4.7542,4.7612,4.7623,4.763,4.7601,4.7637,4.7658,4.7643,4.7784,4.7745,4.7762,4.7812,4.7952,4.796,4.7967,4.8007,4.8021,4.8032,0,0,0,0,0,0,4.7409,4.7452,4.7444,4.753,4.7568,4.7608,4.7653,4.7644,4.7691,4.7685,4.7692,4.7703,4.7785,4.7806,4.7762,4.7906,4.7864,4.7875,4.7889,4.7903,4.7913,4.7907,4.7726,0,0,0,0,0,4.7426,4.7478,4.7514,4.7587,4.7606,4.7626,4.7657,4.7659,4.7698,4.7714,4.7741,4.7781,4.7835,4.787,4.792,4.8015,4.8026,4.8057,4.8068,4.8076,4.8086,4.8141,4.8156,4.7993,4.7993,4.7993,0,0,4.7462,4.7493,4.7525,4.7594,4.7623,4.7679,4.764,4.7699,4.7741,4.7723,4.7801,4.7823,4.7868,4.7956,4.7996,4.7976,4.8134,4.8085,4.8092,4.8097,4.815,4.8165,4.8179,4.7998,4.7997,4.7997,0,0,4.7557,4.7584,4.7649,4.768,4.7725,4.7739,4.7754,4.7797,4.7811,4.7889,4.7878,4.7928,4.802,4.8054,4.8083,4.8194,4.8183,4.8211,4.8266,4.832,4.8333,4.8344,4.8386,4.8401,4.822,4.822,4.822,0,4.7596,4.7678,4.7683,4.7745,4.7778,4.7765,4.7832,4.7862,4.7922,4.7945,4.7922,4.8039,4.8068,4.8166,4.8194,4.8217,4.8237,4.8205,4.833,4.8342,4.8352,4.8393,4.8409,4.8223,4.8223,4.8223,4.8222,0,4.7726,4.7783,4.7831,4.789,4.7927,4.7991,4.8009,4.8046,4.8046,4.8063,4.8145,4.818,4.824,4.8263,4.8263,4.8362,4.8349,4.8328,4.8286,4.8371,4.841,4.8425,4.8228,4.8227,4.8226,4.8225,0,0,4.7841,4.7905,4.7922,4.795,4.8001,4.8046,4.8112,4.817,4.8204,4.8246,4.8303,4.8383,4.8365,4.8398,4.8402,4.8449,4.8539,4.8422,4.8424,4.8445,4.8654,4.8671,4.8688,4.8532,4.8535,4.8537,4.8651,0,4.7942,4.8056,4.8064,4.8168,4.8223,4.8213,4.8271,4.8309,4.8328,4.8379,4.8399,4.8457,4.8427,4.8448,4.8494,4.8518,4.8581,4.851,4.8587,4.8589,4.8577,4.8708,4.8725,4.8831,4.8666,4.8669,4.867,0,4.8073,4.8121,4.8231,4.8277,4.83,4.8351,4.8408,4.8456,4.8501,4.8511,4.855,4.8549,4.8619,4.8574,4.8672,4.8624,4.8656,4.8673,4.8678,4.8686,4.8636,4.8722,4.8864,4.8881,4.8694,4.8692,4.869,0,4.815,4.8242,4.832,4.8344,4.8399,4.8436,4.8461,4.8503,4.8539,4.8588,4.8612,4.8669,4.8701,4.8746,4.8762,4.8727,4.886,4.8816,4.8873,4.8873,4.8902,4.89,4.9053,4.892,4.892,4.892,4.8919,0,4.8262,4.833,4.8355,4.8403,4.848,4.8491,4.8567,4.859,4.8629,4.8683,4.8678,4.8729,4.8745,4.88,4.8813,4.8894,4.8908,4.892,4.8923,4.8921,4.892,4.8943,4.8937,4.8924,4.8923,4.8922,4.8921,0,4.836,4.838,4.8465,4.8511,4.8524,4.8579,4.862,4.8668,4.8686,4.8755,4.8772,4.8802,4.8866,4.8886,4.8964,4.8973,4.9068,4.9064,4.9053,4.9054,4.911,4.9106,4.9285,4.931,4.9159,4.916,4.9162,0,4.8431,4.8484,4.8536,4.8572,4.8599,4.8656,4.8693,4.8707,4.8746,4.8803,4.8845,4.8909,4.8961,4.9066,4.9095,4.9156,4.9154,4.9213,4.9163,4.9161,4.9157,4.9155,4.9161,4.9222,4.9224,4.9225,4.9226,0,4.8556,4.8564,4.8617,4.8675,4.8719,4.8765,4.881,4.884,4.886,4.8905,4.8971,4.9012,4.9093,4.9157,4.922,4.9247,4.9242,4.9242,4.9258,4.9258,4.9251,4.9258,4.9081,4.9237,4.9236,4.9235,4.9235,4.9234,4.8644,4.8692,4.8737,4.8797,4.8833,4.8875,4.8923,4.8949,4.9004,4.9071,4.9075,4.9148,4.9196,4.9278,4.931,4.9368,4.9351,4.9375,4.9381,4.9387,4.9393,4.924,4.9379,4.9379,4.9379,4.9379,4.9378,0,4.8771,4.88,4.8855,4.8919,4.8967,4.8957,4.9007,4.9048,4.9112,4.9156,4.9208,4.9287,4.9351,4.9386,4.945,4.9491,4.949,4.9507,4.9505,4.9513,4.9403,4.9383,4.9507,4.9507,4.9507,4.9507,4.9507,4.9507,4.8842,4.8923,4.8937,4.9036,4.9065,4.9136,4.9166,4.9206,4.9242,4.9329,4.9382,4.9405,4.9447,4.9515,4.9574,4.9583,4.9608,4.9628,4.9636,4.9533,4.952,4.9507,4.9489,4.9633,4.9633,4.9741,4.9741,4.9742]},{"header":{"parameterUnit":"m.s-1","parameterCategory":1,"la1":30.2991,"la2":30.254,"lo1":-89.0895,"lo2":-89.0444,"dy":0.0017,"dx":0.0017,"nx":28,"ny":28,"refTime":"2024-04-09T21:00:00:Z","depth":0,"parameterNumber":3,"parameterNumberName":"V-component_of_WINDS"},"data":[0,0,0,0,0,0,0,0,0,0,0,0,0,0,0,0,0,0,0,0,0,0,0,0,0,0,0,0,0,0,0,0,0,0,0,0,0,0,0,0,0,0,0,0,0,0,0,0,0,0,0,0,0,0,0,0,0,0,-4.3481,-4.3481,0,-4.3538,-4.3538,-4.3539,-4.3559,-4.3558,-4.3558,-4.3558,-4.3614,-4.3615,-4.3617,0,0,0,0,0,0,0,0,0,0,0,0,0,-4.3388,-4.339,-4.3481,-4.3481,-4.3482,-4.3538,-4.3538,-4.3539,-4.3559,-4.3558,-4.3558,-4.3558,-4.3613,-4.3615,-4.3617,0,0,0,0,0,0,0,0,0,0,0,0,0,-4.3435,-4.339,-4.348,-4.3498,-4.3501,-4.3537,-4.3538,-4.3539,-4.3559,-4.3558,-4.3558,-4.3558,-4.3613,-4.3615,-4.3618,-4.364,0,0,-4.3625,-4.3626,0,0,0,0,0,0,0,0,-4.3432,-4.3438,-4.3495,-4.3497,-4.35,-4.3541,-4.3526,-4.3573,-4.3559,-4.3537,-4.3558,-4.3558,-4.359,-4.3594,-4.3605,-4.3642,-4.3645,-4.3625,-4.3627,-4.3628,-4.3629,0,0,0,0,0,0,0,-4.3429,-4.3436,-4.3503,-4.3496,-4.3499,-4.3504,-4.351,-4.3535,-4.3564,-4.3538,-4.354,-4.3547,-4.3591,-4.3603,-4.3607,-4.3646,-4.3625,-4.3628,-4.3629,-4.363,-4.3707,-4.3708,0,0,0,0,0,0,-4.3423,-4.3433,-4.3501,-4.3505,-4.3465,-4.3506,-4.3513,-4.3528,-4.3564,-4.3569,-4.3547,-4.3547,-4.3599,-4.3604,-4.3609,-4.3639,-4.3628,-4.363,-4.3632,-4.3707,-4.3707,-4.3708,0,0,0,0,0,0,-4.3421,-4.3429,-4.3499,-4.347,-4.3479,-4.3508,-4.3525,-4.3529,-4.3541,-4.357,-4.3575,-4.3554,-4.3599,-4.3605,-4.3633,-4.3641,-4.3632,-4.3634,-4.3706,-4.3707,-4.3708,-4.3699,0,0,0,0,0,0,-4.3418,-4.3428,-4.3436,-4.347,-4.348,-4.3522,-4.3525,-4.3531,-4.3546,-4.3547,-4.3578,-4.3583,-4.3599,-4.3629,-4.3635,-4.3645,-4.3636,-4.3705,-4.3706,-4.3707,-4.3698,-4.3699,-4.37,0,0,0,0,0,-4.3415,-4.343,-4.3437,-4.3445,-4.3492,-4.3522,-4.3528,-4.3547,-4.3546,-4.3556,-4.3575,-4.3582,-4.364,-4.3632,-4.3639,-4.3649,-4.3705,-4.3706,-4.3707,-4.3698,-4.3699,-4.37,0,0,0,0,0,0,-4.3395,-4.3435,-4.3442,-4.3469,-4.3493,-4.3526,-4.3537,-4.3547,-4.357,-4.357,-4.3591,-4.3598,-4.3625,-4.364,-4.363,-4.3674,-4.3673,-4.3675,-4.3663,-4.3664,-4.3665,-4.3661,-4.3638,0,0,0,0,0,-4.3395,-4.3417,-4.345,-4.347,-4.3482,-4.3508,-4.3522,-4.3534,-4.3559,-4.3568,-4.359,-4.3613,-4.3637,-4.3651,-4.3674,-4.3701,-4.3709,-4.3712,-4.3713,-4.3713,-4.3715,-4.3733,-4.3735,-4.3712,-4.3712,-4.3712,0,0,-4.3392,-4.3417,-4.3429,-4.3467,-4.3486,-4.3509,-4.3515,-4.3538,-4.3556,-4.3572,-4.36,-4.3616,-4.3644,-4.3672,-4.3685,-4.3685,-4.3724,-4.3715,-4.3715,-4.3716,-4.3734,-4.3736,-4.3738,-4.3713,-4.3712,-4.3712,0,0,-4.34,-4.342,-4.3441,-4.3461,-4.3492,-4.3509,-4.3514,-4.3547,-4.3559,-4.3588,-4.3602,-4.3623,-4.3662,-4.3682,-4.3697,-4.3717,-4.3725,-4.3724,-4.3727,-4.3744,-4.3746,-4.3748,-4.3756,-4.3759,-4.3726,-4.3726,-4.3726,0,-4.3393,-4.3428,-4.3449,-4.3473,-4.349,-4.3508,-4.353,-4.3548,-4.3584,-4.3596,-4.3596,-4.3648,-4.3668,-4.3702,-4.3707,-4.3719,-4.3726,-4.372,-4.3744,-4.3746,-4.3748,-4.3756,-4.3759,-4.3726,-4.3726,-4.3726,-4.3726,0,-4.3419,-4.3443,-4.3456,-4.3493,-4.3511,-4.3533,-4.3559,-4.3576,-4.3588,-4.3606,-4.3637,-4.3661,-4.3691,-4.37,-4.3711,-4.3737,-4.3737,-4.374,-4.3739,-4.375,-4.3758,-4.3761,-4.3725,-4.3725,-4.3725,-4.3725,0,0,-4.3412,-4.3464,-4.3468,-4.3487,-4.3523,-4.3543,-4.3567,-4.3598,-4.3612,-4.3637,-4.3659,-4.3694,-4.3699,-4.3716,-4.373,-4.3745,-4.3761,-4.3747,-4.3748,-4.375,-4.3794,-4.3791,-4.3794,-4.3768,-4.3768,-4.3769,-4.3792,0,-4.3425,-4.347,-4.3492,-4.3527,-4.3551,-4.357,-4.3592,-4.3617,-4.3635,-4.3659,-4.3679,-4.3704,-4.3708,-4.3719,-4.3735,-4.3756,-4.3771,-4.3755,-4.3788,-4.3789,-4.3781,-4.3798,-4.3794,-4.3814,-4.3795,-4.3795,-4.3796,0,-4.3445,-4.3473,-4.3511,-4.3548,-4.3559,-4.3578,-4.361,-4.3631,-4.3661,-4.3674,-4.3696,-4.371,-4.3737,-4.3735,-4.3774,-4.3763,-4.3778,-4.3791,-4.3792,-4.3796,-4.3793,-4.3802,-4.3821,-4.3824,-4.3801,-4.38,-4.38,0,-4.3439,-4.3485,-4.3515,-4.353,-4.3573,-4.3587,-4.3605,-4.3635,-4.3653,-4.3681,-4.3694,-4.3724,-4.374,-4.3763,-4.3786,-4.3782,-4.3823,-4.3822,-4.3835,-4.3834,-4.3841,-4.3841,-4.3863,-4.3851,-4.3851,-4.3851,-4.3851,0,-4.3451,-4.3473,-4.3513,-4.3531,-4.3558,-4.3584,-4.361,-4.363,-4.3657,-4.368,-4.3698,-4.3719,-4.3748,-4.3773,-4.3791,-4.3821,-4.3828,-4.384,-4.3844,-4.3838,-4.3837,-4.3848,-4.3847,-4.3852,-4.3852,-4.3852,-4.3851,0,-4.3447,-4.3474,-4.3508,-4.3548,-4.3559,-4.3577,-4.3611,-4.363,-4.3651,-4.368,-4.3688,-4.3721,-4.3751,-4.3777,-4.3816,-4.3829,-4.3861,-4.3866,-4.3851,-4.3853,-4.3865,-4.3864,-4.3895,-4.3901,-4.3885,-4.3885,-4.3885,0,-4.3453,-4.3471,-4.3514,-4.3532,-4.3551,-4.3578,-4.3598,-4.3625,-4.3645,-4.3683,-4.3697,-4.373,-4.3757,-4.3806,-4.3833,-4.3864,-4.387,-4.388,-4.3875,-4.3869,-4.3872,-4.387,-4.3873,-4.3879,-4.3879,-4.3879,-4.388,0,-4.346,-4.3474,-4.3502,-4.3536,-4.356,-4.3587,-4.3615,-4.3628,-4.3661,-4.3682,-4.3715,-4.3737,-4.3779,-4.3812,-4.3847,-4.3866,-4.3879,-4.3881,-4.3886,-4.388,-4.3871,-4.3877,-4.3852,-4.388,-4.388,-4.388,-4.388,-4.388,-4.3462,-4.3481,-4.3515,-4.3546,-4.3571,-4.3598,-4.3618,-4.3643,-4.3671,-4.3709,-4.3723,-4.3757,-4.379,-4.3839,-4.3859,-4.3886,-4.3887,-4.3894,-4.3895,-4.3897,-4.3896,-4.3867,-4.3892,-4.3892,-4.3892,-4.3892,-4.3892,0,-4.3472,-4.3496,-4.3525,-4.3565,-4.359,-4.3602,-4.3634,-4.3655,-4.3685,-4.3715,-4.3742,-4.3781,-4.3814,-4.3845,-4.388,-4.3896,-4.3903,-4.3904,-4.3903,-4.3908,-4.3893,-4.3886,-4.3898,-4.3898,-4.3898,-4.3898,-4.3898,-4.3898,-4.348,-4.3512,-4.353,-4.3576,-4.36,-4.3635,-4.3652,-4.3678,-4.3702,-4.3745,-4.3773,-4.3794,-4.3825,-4.3863,-4.3894,-4.3902,-4.3914,-4.3914,-4.3924,-4.3909,-4.3908,-4.3907,-4.3901,-4.3916,-4.3916,-4.3937,-4.3937,-4.3937]}]]